Total_Precipitation_Accumulation
0.01 0.03 0.06 0.08 0.09 0.06 0.04 0.02 0.04 0.04 0.06 0.04 0.02 0.01 0.01 0.01 0.01 0.00 0.00 0.00 0.00 0.01 0.01 0.01 0.01 0.01 0.02 0.03 0.03 0.04 0.04 0.04 0.05 0.05 0.06 0.06 0.06 0.06 0.06 0.07 0.08 0.12 0.15 0.15
0.01 0.03 0.04 0.06 0.10 0.06 0.03 0.03 0.02 0.02 0.03 0.03 0.02 0.02 0.03 0.03 0.02 0.02 0.03 0.03 0.04 0.05 0.05 0.05 0.04 0.04 0.04 0.04 0.05 0.05 0.05 0.05 0.04 0.05 0.05 0.06 0.06 0.06 0.06 0.08 0.12 0.17 0.20 0.20
0.01 0.03 0.03 0.08 0.08 0.06 0.07 0.06 0.05 0.06 0.06 0.07 0.08 0.09 0.11 0.13 0.15 0.15 0.13 0.10 0.08 0.06 0.04 0.03 0.02 0.01 0.02 0.02 0.02 0.02 0.03 0.03 0.04 0.05 0.05 0.06 0.06 0.07 0.09 0.12 0.16 0.21 0.25 0.27
0.02 0.03 0.06 0.08 0.07 0.06 0.07 0.09 0.09 0.11 0.13 0.16 0.20 0.24 0.30 0.32 0.24 0.15 0.08 0.05 0.03 0.03 0.02 0.02 0.01 0.01 0.02 0.02 0.02 0.02 0.03 0.03 0.05 0.06 0.07 0.08 0.11 0.13 0.17 0.21 0.23 0.27 0.30 0.33
0.03 0.03 0.05 0.06 0.09 0.11 0.10 0.11 0.14 0.21 0.25 0.29 0.29 0.23 0.18 0.13 0.08 0.06 0.05 0.04 0.04 0.03 0.03 0.02 0.02 0.02 0.02 0.02 0.03 0.04 0.05 0.08 0.10 0.12 0.14 0.16 0.20 0.24 0.29 0.32 0.31 0.32 0.34 0.39
0.07 0.07 0.08 0.10 0.14 0.16 0.16 0.23 0.24 0.25 0.22 0.17 0.14 0.17 0.13 0.09 0.07 0.06 0.06 0.04 0.04 0.03 0.03 0.03 0.03 0.04 0.04 0.05 0.05 0.06 0.08 0.10 0.13 0.18 0.24 0.27 0.32 0.36 0.39 0.42 0.41 0.40 0.38 0.42
0.12 0.11 0.11 0.15 0.13 0.12 0.19 0.25 0.25 0.24 0.22 0.20 0.20 0.21 0.20 0.13 0.08 0.07 0.07 0.06 0.05 0.04 0.03 0.04 0.05 0.07 0.09 0.10 0.10 0.10 0.11 0.13 0.15 0.21 0.30 0.34 0.38 0.43 0.47 0.49 0.50 0.51 0.47 0.48
0.20 0.24 0.20 0.20 0.18 0.20 0.24 0.23 0.22 0.20 0.17 0.16 0.14 0.11 0.10 0.10 0.09 0.08 0.06 0.06 0.05 0.05 0.05 0.06 0.07 0.10 0.13 0.15 0.15 0.16 0.17 0.18 0.19 0.25 0.33 0.35 0.45 0.49 0.54 0.58 0.60 0.61 0.63 0.61
0.21 0.23 0.19 0.20 0.21 0.21 0.21 0.20 0.17 0.15 0.12 0.12 0.13 0.12 0.09 0.08 0.09 0.08 0.07 0.06 0.05 0.05 0.06 0.07 0.10 0.13 0.18 0.18 0.19 0.20 0.21 0.22 0.25 0.30 0.42 0.56 0.60 0.57 0.61 0.66 0.65 0.64 0.69 0.73
0.18 0.21 0.23 0.22 0.21 0.17 0.15 0.12 0.08 0.09 0.11 0.09 0.08 0.09 0.09 0.10 0.09 0.07 0.06 0.05 0.05 0.06 0.07 0.08 0.09 0.12 0.17 0.20 0.24 0.28 0.27 0.27 0.29 0.35 0.48 0.72 0.85 0.78 0.72 0.71 0.71 0.72 0.70 0.72
0.16 0.19 0.19 0.19 0.13 0.09 0.08 0.07 0.06 0.06 0.05 0.04 0.03 0.03 0.04 0.04 0.03 0.02 0.03 0.04 0.05 0.07 0.09 0.09 0.10 0.14 0.19 0.25 0.33 0.36 0.34 0.32 0.32 0.38 0.52 0.74 0.91 0.90 0.76 0.73 0.72 0.72 0.71 0.71
0.11 0.14 0.15 0.16 0.11 0.08 0.09 0.08 0.07 0.05 0.03 0.02 0.01 0.01 0.01 0.01 0.02 0.02 0.03 0.05 0.07 0.10 0.12 0.13 0.16 0.21 0.25 0.30 0.38 0.44 0.42 0.38 0.39 0.43 0.52 0.73 0.95 1.01 0.81 0.64 0.62 0.61 0.55 0.53
0.11 0.15 0.19 0.17 0.13 0.12 0.12 0.09 0.06 0.05 0.03 0.02 0.01 0.01 0.01 0.02 0.02 0.03 0.05 0.09 0.12 0.16 0.18 0.21 0.24 0.23 0.24 0.30 0.39 0.45 0.45 0.43 0.40 0.41 0.46 0.58 0.83 1.08 1.12 0.86 0.64 0.55 0.43 0.34
0.13 0.15 0.17 0.17 0.16 0.14 0.10 0.06 0.05 0.04 0.02 0.02 0.01 0.01 0.01 0.02 0.03 0.05 0.10 0.16 0.22 0.26 0.27 0.28 0.27 0.24 0.26 0.33 0.38 0.41 0.41 0.38 0.36 0.36 0.38 0.47 0.69 0.97 1.17 1.15 0.98 0.73 0.45 0.28
0.13 0.14 0.15 0.12 0.11 0.10 0.08 0.05 0.04 0.03 0.02 0.01 0.01 0.01 0.01 0.03 0.06 0.11 0.17 0.28 0.37 0.38 0.34 0.32 0.30 0.28 0.30 0.36 0.37 0.36 0.37 0.33 0.30 0.31 0.32 0.37 0.56 0.83 1.05 1.13 1.08 0.96 0.68 0.37
0.13 0.14 0.11 0.08 0.07 0.06 0.05 0.04 0.03 0.02 0.02 0.01 0.02 0.02 0.03 0.06 0.10 0.15 0.23 0.38 0.55 0.56 0.47 0.40 0.35 0.33 0.34 0.37 0.36 0.32 0.31 0.25 0.20 0.22 0.25 0.30 0.42 0.66 0.92 1.07 1.03 0.98 0.83 0.48
0.14 0.11 0.09 0.09 0.08 0.07 0.05 0.03 0.02 0.03 0.03 0.03 0.04 0.05 0.07 0.11 0.17 0.24 0.35 0.45 0.52 0.50 0.46 0.44 0.39 0.35 0.35 0.36 0.35 0.30 0.27 0.22 0.15 0.15 0.24 0.30 0.37 0.55 0.81 0.99 0.96 0.88 0.76 0.45
0.10 0.08 0.07 0.06 0.05 0.06 0.05 0.04 0.04 0.04 0.04 0.05 0.07 0.07 0.10 0.18 0.30 0.46 0.58 0.61 0.56 0.43 0.38 0.39 0.36 0.32 0.30 0.28 0.26 0.25 0.23 0.23 0.21 0.22 0.28 0.32 0.36 0.54 0.76 0.91 0.87 0.82 0.73 0.50
0.07 0.07 0.07 0.06 0.05 0.04 0.03 0.03 0.02 0.02 0.04 0.08 0.10 0.09 0.11 0.18 0.32 0.51 0.62 0.74 0.78 0.63 0.44 0.32 0.29 0.25 0.23 0.19 0.20 0.20 0.20 0.22 0.22 0.24 0.29 0.28 0.38 0.56 0.71 0.78 0.77 0.73 0.62 0.50
0.05 0.05 0.05 0.05 0.03 0.03 0.02 0.02 0.02 0.02 0.06 0.10 0.10 0.07 0.09 0.16 0.31 0.51 0.64 0.74 0.80 0.73 0.53 0.36 0.25 0.19 0.15 0.12 0.13 0.17 0.20 0.24 0.26 0.28 0.30 0.38 0.47 0.60 0.66 0.65 0.63 0.61 0.57 0.55
0.03 0.04 0.04 0.03 0.02 0.01 0.01 0.01 0.01 0.03 0.07 0.09 0.08 0.06 0.10 0.16 0.28 0.48 0.77 0.94 0.82 0.68 0.53 0.40 0.28 0.18 0.13 0.12 0.11 0.14 0.18 0.21 0.27 0.33 0.37 0.43 0.53 0.62 0.63 0.60 0.54 0.50 0.51 0.54
0.03 0.03 0.02 0.01 0.00 0.00 0.00 0.00 0.01 0.03 0.05 0.06 0.06 0.07 0.11 0.18 0.29 0.40 0.59 0.88 0.95 0.86 0.61 0.42 0.30 0.19 0.14 0.12 0.12 0.14 0.16 0.19 0.24 0.30 0.33 0.37 0.47 0.56 0.54 0.48 0.43 0.43 0.47 0.53
0.02 0.02 0.01 0.00 0.00 0.00 0.00 0.00 0.00 0.02 0.03 0.04 0.05 0.07 0.12 0.20 0.33 0.56 0.68 0.68 0.78 0.88 0.66 0.45 0.36 0.26 0.16 0.13 0.15 0.17 0.18 0.22 0.29 0.31 0.29 0.32 0.35 0.41 0.43 0.40 0.42 0.43 0.47 0.49
0.02 0.01 0.01 0.00 0.00 0.00 0.00 0.00 0.00 0.01 0.01 0.01 0.02 0.04 0.08 0.17 0.25 0.40 0.59 0.69 0.72 0.78 0.61 0.45 0.35 0.26 0.20 0.18 0.22 0.26 0.32 0.39 0.40 0.35 0.29 0.30 0.32 0.35 0.40 0.40 0.37 0.40 0.43 0.45
0.01 0.01 0.01 0.01 0.01 0.01 0.01 0.01 0.01 0.01 0.01 0.02 0.02 0.03 0.06 0.12 0.25 0.39 0.53 0.63 0.75 0.80 0.68 0.53 0.41 0.35 0.30 0.31 0.35 0.44 0.51 0.45 0.38 0.33 0.29 0.29 0.32 0.37 0.39 0.41 0.43 0.42 0.40 0.40
0.02 0.01 0.01 0.01 0.02 0.02 0.02 0.02 0.02 0.03 0.03 0.03 0.05 0.07 0.09 0.14 0.21 0.33 0.46 0.53 0.62 0.72 0.67 0.51 0.36 0.32 0.33 0.38 0.43 0.47 0.46 0.41 0.35 0.33 0.32 0.33 0.36 0.39 0.39 0.42 0.45 0.41 0.39 0.39
0.02 0.02 0.02 0.03 0.03 0.03 0.04 0.05 0.06 0.06 0.08 0.10 0.14 0.18 0.20 0.22 0.26 0.33 0.40 0.45 0.50 0.51 0.48 0.38 0.28 0.28 0.28 0.29 0.33 0.36 0.37 0.38 0.37 0.36 0.37 0.38 0.40 0.41 0.39 0.37 0.36 0.35 0.33 0.32